Time,TemperatureF,DewpointF,PressureIn,WindDirection,WindDirectionDegrees,WindSpeedMPH,WindSpeedGustMPH,Humidity,HourlyPrecipIn,Conditions,Clouds,dailyrainin,SoftwareType,DateUTC
2013-09-19 00:04:00,64.6,53.4,29.78,NNW,340,0.0,0.0,67,0.00,CLR,,0.00,WeatherDisplay:10.37,2013-09-19 07:04:00,
2013-09-19 00:09:00,64.5,53.3,29.78,NNW,340,0.0,0.0,67,0.00,CLR,,0.00,WeatherDisplay:10.37,2013-09-19 07:09:00,
2013-09-19 00:14:00,64.4,52.8,29.78,NNW,340,0.0,0.0,66,0.00,CLR,,0.00,WeatherDisplay:10.37,2013-09-19 07:14:00,
2013-09-19 00:19:00,64.4,53.2,29.78,NNW,340,0.0,0.0,67,0.00,CLR,,0.00,WeatherDisplay:10.37,2013-09-19 07:19:00,
2013-09-19 00:24:00,64.4,53.2,29.78,NNW,340,0.0,0.0,67,0.00,CLR,,0.00,WeatherDisplay:10.37,2013-09-19 07:24:00,
2013-09-19 00:29:00,64.4,53.2,29.78,NNW,340,0.0,0.0,67,0.00,CLR,,0.00,WeatherDisplay:10.37,2013-09-19 07:29:00,
2013-09-19 00:34:00,64.3,53.5,29.78,NNW,340,0.0,0.0,68,0.00,CLR,,0.00,WeatherDisplay:10.37,2013-09-19 07:34:00,
2013-09-19 00:39:00,64.2,53.0,29.78,NNW,340,0.0,0.0,67,0.00,CLR,,0.00,WeatherDisplay:10.37,2013-09-19 07:39:00,
2013-09-19 00:44:00,64.2,53.4,29.78,NNW,340,0.0,0.0,68,0.00,CLR,,0.00,WeatherDisplay:10.37,2013-09-19 07:44:00,
2013-09-19 00:49:00,64.1,53.3,29.78,NNW,340,0.0,0.0,68,0.00,CLR,,0.00,WeatherDisplay:10.37,2013-09-19 07:49:00,
2013-09-19 00:54:00,64.0,53.6,29.78,NNW,340,0.0,0.0,69,0.00,CLR,,0.00,WeatherDisplay:10.37,2013-09-19 07:54:00,
2013-09-19 00:59:00,63.8,53.0,29.78,NNW,340,0.0,0.0,68,0.00,CLR,,0.00,WeatherDisplay:10.37,2013-09-19 07:59:00,
2013-09-19 01:04:00,63.8,54.2,29.78,NNW,340,0.0,0.0,71,0.00,CLR,,0.00,WeatherDisplay:10.37,2013-09-19 08:04:00,
2013-09-19 01:09:00,63.7,54.1,29.78,NNW,340,0.0,0.0,71,0.00,CLR,,0.00,WeatherDisplay:10.37,2013-09-19 08:09:00,
2013-09-19 01:14:00,63.5,53.9,29.78,NNW,340,0.0,0.0,71,0.00,CLR,,0.00,WeatherDisplay:10.37,2013-09-19 08:14:00,
2013-09-19 01:19:00,63.3,53.7,29.78,NNW,340,0.0,0.0,71,0.00,CLR,,0.00,WeatherDisplay:10.37,2013-09-19 08:19:00,
2013-09-19 01:24:00,63.0,53.4,29.78,NNW,340,0.0,0.0,71,0.00,CLR,,0.00,WeatherDisplay:10.37,2013-09-19 08:24:00,
2013-09-19 01:29:00,62.8,53.3,29.78,NNW,340,0.0,0.0,71,0.00,CLR,,0.00,WeatherDisplay:10.37,2013-09-19 08:29:00,
2013-09-19 01:34:00,62.6,52.7,29.78,NNW,340,0.0,0.0,70,0.00,CLR,,0.00,WeatherDisplay:10.37,2013-09-19 08:34:00,
2013-09-19 01:39:00,63.1,52.8,29.78,NW,322,1.2,1.2,69,0.00,CLR,,0.00,WeatherDisplay:10.37,2013-09-19 08:39:00,
2013-09-19 01:44:00,63.5,52.7,29.78,NW,322,0.0,0.0,68,0.00,CLR,,0.00,WeatherDisplay:10.37,2013-09-19 08:44:00,
2013-09-19 01:49:00,63.5,53.1,29.78,NW,322,0.0,0.0,69,0.00,CLR,,0.00,WeatherDisplay:10.37,2013-09-19 08:49:00,
2013-09-19 01:54:00,63.3,53.0,29.78,NW,322,0.0,0.0,69,0.00,CLR,,0.00,WeatherDisplay:10.37,2013-09-19 08:54:00,
2013-09-19 01:59:00,63.1,53.2,29.78,NW,322,0.0,0.0,70,0.00,CLR,,0.00,WeatherDisplay:10.37,2013-09-19 08:59:00,
2013-09-19 02:04:00,62.9,53.4,29.78,NW,322,0.0,0.0,71,0.00,CLR,,0.00,WeatherDisplay:10.37,2013-09-19 09:04:00,
2013-09-19 02:09:00,62.7,53.2,29.78,NW,322,0.0,0.0,71,0.00,CLR,,0.00,WeatherDisplay:10.37,2013-09-19 09:09:00,
2013-09-19 02:14:00,62.4,52.9,29.78,NW,322,0.0,0.0,71,0.00,CLR,,0.00,WeatherDisplay:10.37,2013-09-19 09:14:00,
2013-09-19 02:19:00,62.3,53.2,29.78,NW,322,0.0,0.0,72,0.00,CLR,,0.00,WeatherDisplay:10.37,2013-09-19 09:19:00,
2013-09-19 02:24:00,62.1,53.3,29.78,NW,322,0.0,0.0,73,0.00,CLR,,0.00,WeatherDisplay:10.37,2013-09-19 09:24:00,
2013-09-19 02:29:00,61.8,53.1,29.78,NW,322,0.0,0.0,73,0.00,CLR,,0.00,WeatherDisplay:10.37,2013-09-19 09:29:00,
2013-09-19 02:34:00,61.6,53.2,29.77,NW,322,0.0,0.0,74,0.00,CLR,,0.00,WeatherDisplay:10.37,2013-09-19 09:34:00,
2013-09-19 02:39:00,61.5,53.5,29.77,NW,322,0.0,0.0,75,0.00,CLR,,0.00,WeatherDisplay:10.37,2013-09-19 09:39:00,
2013-09-19 02:44:00,61.3,53.3,29.77,NW,322,0.0,0.0,75,0.00,CLR,,0.00,WeatherDisplay:10.37,2013-09-19 09:44:00,
2013-09-19 02:49:00,61.3,53.3,29.78,NW,322,0.0,0.0,75,0.00,CLR,,0.00,WeatherDisplay:10.37,2013-09-19 09:49:00,
2013-09-19 02:54:00,61.0,53.0,29.77,NW,322,0.0,0.0,75,0.00,CLR,,0.00,WeatherDisplay:10.37,2013-09-19 09:54:00,
2013-09-19 02:59:00,61.0,53.0,29.78,NW,322,0.0,0.0,75,0.00,CLR,,0.00,WeatherDisplay:10.37,2013-09-19 09:59:00,
2013-09-19 03:04:00,61.0,52.7,29.78,NW,322,0.0,0.0,74,0.00,CLR,,0.00,WeatherDisplay:10.37,2013-09-19 10:04:00,
2013-09-19 03:09:00,61.1,53.1,29.78,NW,322,0.0,0.0,75,0.00,CLR,,0.00,WeatherDisplay:10.37,2013-09-19 10:09:00,
2013-09-19 03:14:00,61.0,52.7,29.78,NW,322,0.0,0.0,74,0.00,CLR,,0.00,WeatherDisplay:10.37,2013-09-19 10:14:00,
2013-09-19 03:19:00,61.0,53.0,29.78,NW,322,0.0,0.0,75,0.00,CLR,,0.00,WeatherDisplay:10.37,2013-09-19 10:19:00,
2013-09-19 03:24:00,60.8,52.8,29.78,NW,322,0.0,0.0,75,0.00,CLR,,0.00,WeatherDisplay:10.37,2013-09-19 10:24:00,
2013-09-19 03:29:00,60.7,52.7,29.78,NW,322,0.0,0.0,75,0.00,CLR,,0.00,WeatherDisplay:10.37,2013-09-19 10:29:00,
2013-09-19 03:34:00,60.6,53.0,29.77,NW,322,0.0,0.0,76,0.00,CLR,,0.00,WeatherDisplay:10.37,2013-09-19 10:34:00,
2013-09-19 03:39:00,60.4,52.8,29.78,NW,322,0.0,0.0,76,0.00,CLR,,0.00,WeatherDisplay:10.37,2013-09-19 10:39:00,
2013-09-19 03:44:00,60.3,53.1,29.78,NW,322,0.0,0.0,77,0.00,CLR,,0.00,WeatherDisplay:10.37,2013-09-19 10:44:00,
2013-09-19 03:49:00,60.1,53.2,29.77,NW,322,0.0,0.0,78,0.00,CLR,,0.00,WeatherDisplay:10.37,2013-09-19 10:49:00,
2013-09-19 03:54:00,60.0,53.5,29.77,NW,322,0.0,0.0,79,0.00,CLR,,0.00,WeatherDisplay:10.37,2013-09-19 10:54:00,
2013-09-19 03:59:00,59.8,52.9,29.77,NW,322,0.0,0.0,78,0.00,CLR,,0.00,WeatherDisplay:10.37,2013-09-19 10:59:00,
2013-09-19 04:04:00,59.7,52.8,29.77,NW,322,0.0,0.0,78,0.00,CLR,,0.00,WeatherDisplay:10.37,2013-09-19 11:04:00,
2013-09-19 04:09:00,59.5,52.6,29.78,NW,322,0.0,0.0,78,0.00,CLR,,0.00,WeatherDisplay:10.37,2013-09-19 11:09:00,
2013-09-19 04:14:00,59.3,52.4,29.78,NW,322,0.0,0.0,78,0.00,CLR,,0.00,WeatherDisplay:10.37,2013-09-19 11:14:00,
2013-09-19 04:19:00,59.1,52.2,29.78,NW,322,0.0,0.0,78,0.00,CLR,,0.00,WeatherDisplay:10.37,2013-09-19 11:19:00,
2013-09-19 04:24:00,59.0,52.5,29.78,NW,322,0.0,0.0,79,0.00,CLR,,0.00,WeatherDisplay:10.37,2013-09-19 11:24:00,
2013-09-19 04:29:00,59.0,52.8,29.77,NW,322,0.0,0.0,80,0.00,CLR,,0.00,WeatherDisplay:10.37,2013-09-19 11:29:00,
2013-09-19 04:34:00,59.0,52.5,29.77,NW,322,0.0,0.0,79,0.00,CLR,,0.00,WeatherDisplay:10.37,2013-09-19 11:34:00,
2013-09-19 04:39:00,59.1,52.6,29.77,NW,322,0.0,0.0,79,0.00,CLR,,0.00,WeatherDisplay:10.37,2013-09-19 11:39:00,
2013-09-19 04:44:00,59.0,52.5,29.78,NW,322,0.0,0.0,79,0.00,CLR,,0.00,WeatherDisplay:10.37,2013-09-19 11:44:00,
2013-09-19 04:49:00,58.9,52.4,29.77,NW,322,0.0,0.0,79,0.00,CLR,,0.00,WeatherDisplay:10.37,2013-09-19 11:49:00,
2013-09-19 04:54:00,58.8,52.3,29.77,NW,322,0.0,0.0,79,0.00,CLR,,0.00,WeatherDisplay:10.37,2013-09-19 11:54:00,
2013-09-19 04:59:00,58.7,52.2,29.78,NW,322,0.0,0.0,79,0.00,CLR,,0.00,WeatherDisplay:10.37,2013-09-19 11:59:00,
2013-09-19 05:04:00,58.6,52.1,29.77,NW,322,0.0,0.0,79,0.00,CLR,,0.00,WeatherDisplay:10.37,2013-09-19 12:04:00,
2013-09-19 05:09:00,58.5,52.0,29.77,NW,322,0.0,0.0,79,0.00,CLR,,0.00,WeatherDisplay:10.37,2013-09-19 12:09:00,
2013-09-19 05:14:00,58.4,51.9,29.78,NW,322,0.0,0.0,79,0.00,CLR,,0.00,WeatherDisplay:10.37,2013-09-19 12:14:00,
2013-09-19 05:19:00,58.4,52.3,29.78,NW,322,0.0,0.0,80,0.00,CLR,,0.00,WeatherDisplay:10.37,2013-09-19 12:19:00,
2013-09-19 05:24:00,58.3,52.2,29.77,NW,322,0.0,0.0,80,0.00,CLR,,0.00,WeatherDisplay:10.37,2013-09-19 12:24:00,
2013-09-19 05:29:00,58.3,52.2,29.77,NW,322,0.0,0.0,80,0.00,CLR,,0.00,WeatherDisplay:10.37,2013-09-19 12:29:00,
2013-09-19 05:34:00,58.2,52.1,29.78,NW,322,0.0,0.0,80,0.00,CLR,,0.00,WeatherDisplay:10.37,2013-09-19 12:34:00,
2013-09-19 05:39:00,58.3,51.8,29.78,NW,322,0.0,0.0,79,0.00,CLR,,0.00,WeatherDisplay:10.37,2013-09-19 12:39:00,
2013-09-19 05:44:00,58.5,51.7,29.78,NW,322,0.0,0.0,78,0.00,CLR,,0.00,WeatherDisplay:10.37,2013-09-19 12:44:00,
2013-09-19 05:49:00,58.9,52.1,29.78,NW,322,0.0,0.0,78,0.00,CLR,,0.00,WeatherDisplay:10.37,2013-09-19 12:49:00,
2013-09-19 05:54:00,59.3,51.7,29.78,NW,322,0.0,0.0,76,0.00,CLR,,0.00,WeatherDisplay:10.37,2013-09-19 12:54:00,
2013-09-19 05:59:00,59.6,51.7,29.78,NW,322,0.0,0.0,75,0.00,CLR,,0.00,WeatherDisplay:10.37,2013-09-19 12:59:00,
2013-09-19 06:04:00,59.6,51.3,29.78,NW,322,0.0,0.0,74,0.00,CLR,,0.00,WeatherDisplay:10.37,2013-09-19 13:04:00,
2013-09-19 06:09:00,59.6,51.7,29.78,NW,322,0.0,0.0,75,0.00,CLR,,0.00,WeatherDisplay:10.37,2013-09-19 13:09:00,
2013-09-19 06:14:00,59.5,51.6,29.78,NW,322,0.0,0.0,75,0.00,CLR,,0.00,WeatherDisplay:10.37,2013-09-19 13:14:00,
2013-09-19 06:19:00,59.4,51.8,29.79,NW,322,0.0,0.0,76,0.00,CLR,,0.00,WeatherDisplay:10.37,2013-09-19 13:19:00,
2013-09-19 06:24:00,59.2,51.6,29.79,NW,322,0.0,0.0,76,0.00,CLR,,0.00,WeatherDisplay:10.37,2013-09-19 13:24:00,
2013-09-19 06:29:00,58.9,51.7,29.79,NW,322,0.0,0.0,77,0.00,CLR,,0.00,WeatherDisplay:10.37,2013-09-19 13:29:00,
2013-09-19 06:35:00,58.7,51.9,29.79,NW,322,0.0,0.0,78,0.00,CLR,,0.00,WeatherDisplay:10.37,2013-09-19 13:35:00,
2013-09-19 06:40:00,58.5,51.3,29.79,NW,322,0.0,0.0,77,0.00,CLR,,0.00,WeatherDisplay:10.37,2013-09-19 13:40:00,
2013-09-19 06:45:00,58.5,51.7,29.80,NW,322,0.0,0.0,78,0.00,CLR,,0.00,WeatherDisplay:10.37,2013-09-19 13:45:00,
2013-09-19 06:50:00,58.5,52.0,29.80,NW,322,0.0,0.0,79,0.00,CLR,,0.00,WeatherDisplay:10.37,2013-09-19 13:50:00,
2013-09-19 06:55:00,58.4,52.3,29.80,NW,322,0.0,0.0,80,0.00,CLR,,0.00,WeatherDisplay:10.37,2013-09-19 13:55:00,
2013-09-19 07:00:00,58.3,52.2,29.80,NW,322,0.0,0.0,80,0.00,CLR,,0.00,WeatherDisplay:10.37,2013-09-19 14:00:00,
2013-09-19 07:05:00,58.2,52.1,29.80,NW,321,0.0,0.0,80,0.00,CLR,,0.00,WeatherDisplay:10.37,2013-09-19 14:05:00,
2013-09-19 07:10:00,58.2,52.4,29.80,NW,322,0.0,0.0,81,0.00,CLR,,0.00,WeatherDisplay:10.37,2013-09-19 14:10:00,
2013-09-19 07:15:00,58.2,52.4,29.80,NW,322,0.0,0.0,81,0.00,CLR,,0.00,WeatherDisplay:10.37,2013-09-19 14:15:00,
2013-09-19 07:20:00,58.3,52.2,29.81,NW,322,0.0,0.0,80,0.00,CLR,,0.00,WeatherDisplay:10.37,2013-09-19 14:20:00,
2013-09-19 07:25:00,58.5,52.7,29.81,NW,322,0.0,0.0,81,0.00,CLR,,0.00,WeatherDisplay:10.37,2013-09-19 14:25:00,
2013-09-19 07:30:00,58.7,52.9,29.81,NW,322,0.0,0.0,81,0.00,CLR,,0.00,WeatherDisplay:10.37,2013-09-19 14:30:00,
2013-09-19 07:35:00,59.0,52.5,29.81,NW,322,0.0,0.0,79,0.00,CLR,,0.00,WeatherDisplay:10.37,2013-09-19 14:35:00,
2013-09-19 07:40:00,59.2,52.3,29.81,NW,322,2.3,0.0,78,0.00,CLR,,0.00,WeatherDisplay:10.37,2013-09-19 14:40:00,
2013-09-19 07:45:00,59.5,52.6,29.81,NW,322,0.0,0.0,78,0.00,CLR,,0.00,WeatherDisplay:10.37,2013-09-19 14:45:00,
2013-09-19 07:50:00,60.0,52.8,29.81,NW,322,0.0,0.0,77,0.00,CLR,,0.00,WeatherDisplay:10.37,2013-09-19 14:50:00,
2013-09-19 07:55:00,60.4,53.2,29.81,NW,322,0.0,0.0,77,0.00,CLR,,0.00,WeatherDisplay:10.37,2013-09-19 14:55:00,
2013-09-19 08:00:00,60.9,53.3,29.81,NW,322,0.0,0.0,76,0.00,CLR,,0.00,WeatherDisplay:10.37,2013-09-19 15:00:00,
2013-09-19 08:05:00,61.4,53.4,29.81,NW,322,0.0,0.0,75,0.00,CLR,,0.00,WeatherDisplay:10.37,2013-09-19 15:05:00,
2013-09-19 08:10:00,61.8,53.4,29.81,NW,322,0.0,0.0,74,0.00,CLR,,0.00,WeatherDisplay:10.37,2013-09-19 15:10:00,
2013-09-19 08:15:00,62.3,53.2,29.81,NW,322,0.0,0.0,72,0.00,CLR,,0.00,WeatherDisplay:10.37,2013-09-19 15:15:00,
2013-09-19 08:20:00,62.8,52.9,29.81,NW,322,0.0,0.0,70,0.00,CLR,,0.00,WeatherDisplay:10.37,2013-09-19 15:20:00,
2013-09-19 08:25:00,63.5,52.3,29.81,NW,322,0.0,0.0,67,0.00,CLR,,0.00,WeatherDisplay:10.37,2013-09-19 15:25:00,
2013-09-19 08:30:00,64.5,52.5,29.81,NW,322,0.0,0.0,65,0.00,CLR,,0.00,WeatherDisplay:10.37,2013-09-19 15:30:00,
2013-09-19 08:35:00,65.2,53.1,29.81,NW,322,0.0,0.0,65,0.00,CLR,,0.00,WeatherDisplay:10.37,2013-09-19 15:35:00,
2013-09-19 08:40:00,66.0,51.7,29.81,NW,322,0.0,0.0,60,0.00,CLR,,0.00,WeatherDisplay:10.37,2013-09-19 15:40:00,
2013-09-19 08:45:00,67.0,51.3,29.81,NW,315,0.0,0.0,57,0.00,CLR,,0.00,WeatherDisplay:10.37,2013-09-19 15:45:00,
2013-09-19 08:50:00,68.0,51.2,29.81,SSW,206,0.0,0.0,55,0.00,CLR,,0.00,WeatherDisplay:10.37,2013-09-19 15:50:00,
2013-09-19 08:55:00,68.7,50.9,29.81,WSW,240,0.0,0.0,53,0.00,CLR,,0.00,WeatherDisplay:10.37,2013-09-19 15:55:00,
2013-09-19 09:00:00,69.2,50.8,29.82,WSW,238,0.0,0.0,52,0.00,CLR,,0.00,WeatherDisplay:10.37,2013-09-19 16:00:00,
2013-09-19 09:05:00,69.7,51.3,29.82,SE,129,0.0,0.0,52,0.00,CLR,,0.00,WeatherDisplay:10.37,2013-09-19 16:05:00,
2013-09-19 09:10:00,70.1,52.2,29.82,ESE,122,0.0,0.0,53,0.00,CLR,,0.00,WeatherDisplay:10.37,2013-09-19 16:10:00,
2013-09-19 09:15:00,70.4,51.9,29.82,WSW,255,1.2,1.2,52,0.00,CLR,,0.00,WeatherDisplay:10.37,2013-09-19 16:15:00,
2013-09-19 09:20:00,70.8,52.3,29.82,West,266,1.2,1.2,52,0.00,CLR,,0.00,WeatherDisplay:10.37,2013-09-19 16:20:00,
2013-09-19 09:25:00,71.0,52.0,29.82,WSW,249,1.2,1.2,51,0.00,CLR,,0.00,WeatherDisplay:10.37,2013-09-19 16:25:00,
2013-09-19 09:30:00,71.2,52.1,29.82,SW,224,0.0,0.0,51,0.00,CLR,,0.00,WeatherDisplay:10.37,2013-09-19 16:30:00,
2013-09-19 09:35:00,71.3,52.2,29.82,SSW,207,1.2,0.0,51,0.00,CLR,,0.00,WeatherDisplay:10.37,2013-09-19 16:35:00,
2013-09-19 09:40:00,71.5,51.3,29.82,WNW,286,1.2,1.2,49,0.00,CLR,,0.00,WeatherDisplay:10.37,2013-09-19 16:40:00,
2013-09-19 09:45:00,71.7,51.5,29.82,SSW,207,1.2,0.0,49,0.00,CLR,,0.00,WeatherDisplay:10.37,2013-09-19 16:45:00,
2013-09-19 09:50:00,71.8,52.2,29.82,South,177,0.0,0.0,50,0.00,CLR,,0.00,WeatherDisplay:10.37,2013-09-19 16:50:00,
2013-09-19 09:55:00,72.1,52.4,29.82,West,266,0.0,0.0,50,0.00,CLR,,0.00,WeatherDisplay:10.37,2013-09-19 16:55:00,
2013-09-19 10:00:00,72.2,52.0,29.82,WSW,249,0.0,0.1,49,0.00,CLR,,0.00,WeatherDisplay:10.37,2013-09-19 17:00:00,
2013-09-19 10:05:00,72.4,52.2,29.82,West,281,0.0,0.0,49,0.00,CLR,,0.00,WeatherDisplay:10.37,2013-09-19 17:05:00,
2013-09-19 10:10:00,72.7,52.4,29.82,West,266,1.2,1.2,49,0.00,CLR,,0.00,WeatherDisplay:10.37,2013-09-19 17:10:00,
2013-09-19 10:15:00,73.0,52.1,29.82,West,266,1.2,0.0,48,0.00,CLR,,0.00,WeatherDisplay:10.37,2013-09-19 17:15:00,
2013-09-19 10:20:00,73.3,52.4,29.82,WSW,250,1.2,0.0,48,0.00,CLR,,0.00,WeatherDisplay:10.37,2013-09-19 17:20:00,
2013-09-19 10:25:00,73.6,52.7,29.82,SW,222,3.5,3.5,48,0.00,CLR,,0.00,WeatherDisplay:10.37,2013-09-19 17:25:00,
2013-09-19 10:30:00,74.2,52.7,29.82,West,269,1.2,0.0,47,0.00,CLR,,0.00,WeatherDisplay:10.37,2013-09-19 17:30:00,
2013-09-19 10:35:00,74.7,52.5,29.82,SW,228,1.2,1.2,46,0.00,CLR,,0.00,WeatherDisplay:10.37,2013-09-19 17:35:00,
2013-09-19 10:40:00,75.2,53.0,29.81,SE,128,1.2,0.0,46,0.00,CLR,,0.00,WeatherDisplay:10.37,2013-09-19 17:40:00,
2013-09-19 10:45:00,75.6,52.8,29.81,West,260,2.3,2.3,45,0.00,CLR,,0.00,WeatherDisplay:10.37,2013-09-19 17:45:00,
2013-09-19 10:50:00,76.0,51.9,29.81,NNW,339,1.2,1.2,43,0.00,CLR,,0.00,WeatherDisplay:10.37,2013-09-19 17:50:00,
2013-09-19 10:55:00,76.4,52.9,29.81,SSW,204,2.3,2.3,44,0.00,CLR,,0.00,WeatherDisplay:10.37,2013-09-19 17:55:00,
2013-09-19 11:00:00,76.8,53.2,29.81,North,350,2.3,2.3,44,0.00,CLR,,0.00,WeatherDisplay:10.37,2013-09-19 18:00:00,
2013-09-19 11:05:00,77.1,52.2,29.81,WSW,246,1.2,1.2,42,0.00,CLR,,0.00,WeatherDisplay:10.37,2013-09-19 18:05:00,
2013-09-19 11:10:00,77.6,52.0,29.81,West,266,2.3,2.3,41,0.00,CLR,,0.00,WeatherDisplay:10.37,2013-09-19 18:10:00,
2013-09-19 11:15:00,77.9,52.3,29.81,NNW,343,2.3,2.3,41,0.00,CLR,,0.00,WeatherDisplay:10.37,2013-09-19 18:15:00,
2013-09-19 11:20:00,78.3,52.7,29.81,NNW,328,2.3,2.3,41,0.00,CLR,,0.00,WeatherDisplay:10.37,2013-09-19 18:20:00,
2013-09-19 11:25:00,78.7,51.7,29.80,WSW,238,1.2,0.0,39,0.00,CLR,,0.00,WeatherDisplay:10.37,2013-09-19 18:25:00,
2013-09-19 11:30:00,78.9,53.2,29.80,WSW,257,0.0,0.3,41,0.00,CLR,,0.00,WeatherDisplay:10.37,2013-09-19 18:30:00,
2013-09-19 11:35:00,79.4,54.3,29.80,WSW,240,2.3,2.3,42,0.00,CLR,,0.00,WeatherDisplay:10.37,2013-09-19 18:35:00,
2013-09-19 11:40:00,80.1,53.6,29.80,West,274,1.2,1.2,40,0.00,CLR,,0.00,WeatherDisplay:10.37,2013-09-19 18:40:00,
2013-09-19 11:45:00,80.8,54.9,29.80,West,270,1.2,1.2,41,0.00,CLR,,0.00,WeatherDisplay:10.37,2013-09-19 18:45:00,
2013-09-19 11:50:00,81.2,54.6,29.79,NW,316,2.3,2.3,40,0.00,CLR,,0.00,WeatherDisplay:10.37,2013-09-19 18:50:00,
2013-09-19 11:55:00,81.7,53.6,29.79,WSW,246,2.3,2.3,38,0.00,CLR,,0.00,WeatherDisplay:10.37,2013-09-19 18:55:00,
2013-09-19 12:00:00,82.3,53.4,29.79,SSE,163,1.2,1.2,37,0.00,CLR,,0.00,WeatherDisplay:10.37,2013-09-19 19:00:00,
2013-09-19 12:05:00,82.5,54.3,29.79,SSW,207,1.2,1.2,38,0.00,CLR,,0.00,WeatherDisplay:10.37,2013-09-19 19:05:00,
2013-09-19 12:10:00,83.0,54.8,29.79,NE,52,1.2,1.2,38,0.00,CLR,,0.00,WeatherDisplay:10.37,2013-09-19 19:10:00,
2013-09-19 12:15:00,82.9,53.2,29.78,WSW,238,3.5,3.5,36,0.00,CLR,,0.00,WeatherDisplay:10.37,2013-09-19 19:15:00,
2013-09-19 12:20:00,83.5,54.5,29.78,SSW,210,1.2,0.0,37,0.00,CLR,,0.00,WeatherDisplay:10.37,2013-09-19 19:20:00,
2013-09-19 12:25:00,84.0,53.4,29.78,WSW,242,1.0,1.0,35,0.00,CLR,,0.00,WeatherDisplay:10.37,2013-09-19 19:25:00,
2013-09-19 12:30:00,84.4,52.1,29.78,North,359,3.5,3.5,33,0.00,CLR,,0.00,WeatherDisplay:10.37,2013-09-19 19:30:00,
2013-09-19 12:35:00,84.5,53.0,29.78,SSW,198,2.3,2.3,34,0.00,CLR,,0.00,WeatherDisplay:10.37,2013-09-19 19:35:00,
2013-09-19 12:40:00,84.9,52.6,29.78,SW,216,3.5,3.5,33,0.00,CLR,,0.00,WeatherDisplay:10.37,2013-09-19 19:40:00,
2013-09-19 12:45:00,85.4,53.0,29.78,SW,231,1.2,1.2,33,0.00,CLR,,0.00,WeatherDisplay:10.37,2013-09-19 19:45:00,
2013-09-19 12:50:00,85.9,52.6,29.78,WSW,252,3.5,3.5,32,0.00,CLR,,0.00,WeatherDisplay:10.37,2013-09-19 19:50:00,
2013-09-19 12:55:00,86.1,51.9,29.77,NNW,343,3.5,3.5,31,0.00,CLR,,0.00,WeatherDisplay:10.37,2013-09-19 19:55:00,
2013-09-19 13:00:00,85.7,51.6,29.77,NNE,33,2.3,2.3,31,0.00,CLR,,0.00,WeatherDisplay:10.37,2013-09-19 20:00:00,
2013-09-19 13:05:00,86.2,52.9,29.77,NW,305,0.0,0.0,32,0.00,CLR,,0.00,WeatherDisplay:10.37,2013-09-19 20:05:00,
2013-09-19 13:10:00,87.1,52.8,29.77,SW,226,1.2,1.2,31,0.00,CLR,,0.00,WeatherDisplay:10.37,2013-09-19 20:10:00,
2013-09-19 13:15:00,87.7,53.3,29.77,West,260,1.2,1.2,31,0.00,CLR,,0.00,WeatherDisplay:10.37,2013-09-19 20:15:00,
2013-09-19 13:20:00,87.7,52.4,29.77,WSW,243,0.0,0.0,30,0.00,CLR,,0.00,WeatherDisplay:10.37,2013-09-19 20:20:00,
2013-09-19 13:25:00,87.9,53.5,29.76,North,351,3.5,3.5,31,0.00,CLR,,0.00,WeatherDisplay:10.37,2013-09-19 20:25:00,
2013-09-19 13:30:00,88.7,53.3,29.76,NNW,333,1.0,1.0,30,0.00,CLR,,0.00,WeatherDisplay:10.37,2013-09-19 20:30:00,
2013-09-19 13:35:00,88.4,52.1,29.76,North,5,3.5,3.5,29,0.00,CLR,,0.00,WeatherDisplay:10.37,2013-09-19 20:35:00,
2013-09-19 13:40:00,87.9,51.7,29.76,North,9,2.3,2.3,29,0.00,CLR,,0.00,WeatherDisplay:10.37,2013-09-19 20:40:00,
2013-09-19 13:45:00,88.1,52.8,29.75,SW,217,1.2,1.2,30,0.00,CLR,,0.00,WeatherDisplay:10.37,2013-09-19 20:45:00,
2013-09-19 13:50:00,88.9,52.5,29.75,NNW,333,4.0,4.0,29,0.00,CLR,,0.00,WeatherDisplay:10.37,2013-09-19 20:50:00,
2013-09-19 13:55:00,88.7,53.3,29.75,NE,37,2.3,2.3,30,0.00,CLR,,0.00,WeatherDisplay:10.37,2013-09-19 20:55:00,
2013-09-19 14:00:00,89.0,52.6,29.75,NNE,22,0.0,0.8,29,0.00,CLR,,0.00,WeatherDisplay:10.37,2013-09-19 21:00:00,
2013-09-19 14:05:00,89.3,53.8,29.74,SSE,163,1.2,1.2,30,0.00,CLR,,0.00,WeatherDisplay:10.37,2013-09-19 21:05:00,
2013-09-19 14:10:00,89.8,52.3,29.74,NNW,333,3.5,3.5,28,0.00,CLR,,0.00,WeatherDisplay:10.37,2013-09-19 21:10:00,
2013-09-19 14:15:00,89.5,54.0,29.74,SW,218,3.5,3.5,30,0.00,CLR,,0.00,WeatherDisplay:10.37,2013-09-19 21:15:00,
2013-09-19 14:20:00,89.7,53.2,29.74,WNW,284,1.2,1.2,29,0.00,CLR,,0.00,WeatherDisplay:10.37,2013-09-19 21:20:00,
2013-09-19 14:25:00,89.9,54.3,29.73,SSW,198,1.2,1.2,30,0.00,CLR,,0.00,WeatherDisplay:10.37,2013-09-19 21:25:00,
2013-09-19 14:30:00,90.4,52.9,29.73,South,189,1.2,1.2,28,0.00,CLR,,0.00,WeatherDisplay:10.37,2013-09-19 21:30:00,
2013-09-19 14:35:00,90.5,52.9,29.73,WNW,302,3.5,3.5,28,0.00,CLR,,0.00,WeatherDisplay:10.37,2013-09-19 21:35:00,
2013-09-19 14:40:00,90.0,52.5,29.73,North,8,2.0,2.0,28,0.00,CLR,,0.00,WeatherDisplay:10.37,2013-09-19 21:40:00,
2013-09-19 14:45:00,89.9,54.3,29.73,WNW,297,2.3,2.3,30,0.00,CLR,,0.00,WeatherDisplay:10.37,2013-09-19 21:45:00,
2013-09-19 14:50:00,90.0,53.5,29.72,SSE,162,1.2,1.2,29,0.00,CLR,,0.00,WeatherDisplay:10.37,2013-09-19 21:50:00,
2013-09-19 14:55:00,90.5,53.9,29.72,North,351,2.3,2.3,29,0.00,CLR,,0.00,WeatherDisplay:10.37,2013-09-19 21:55:00,
2013-09-19 15:00:00,90.6,53.0,29.72,SE,127,1.2,1.2,28,0.00,CLR,,0.00,WeatherDisplay:10.37,2013-09-19 22:00:00,
2013-09-19 15:05:00,91.3,54.6,29.72,SW,228,1.2,1.2,29,0.00,CLR,,0.00,WeatherDisplay:10.37,2013-09-19 22:05:00,
2013-09-19 15:10:00,91.6,52.9,29.72,WSW,249,3.5,3.5,27,0.00,CLR,,0.00,WeatherDisplay:10.37,2013-09-19 22:10:00,
2013-09-19 15:15:00,91.3,53.6,29.71,WNW,283,1.2,1.2,28,0.00,CLR,,0.00,WeatherDisplay:10.37,2013-09-19 22:15:00,
2013-09-19 15:20:00,91.5,50.7,29.71,North,9,3.0,3.0,25,0.00,CLR,,0.00,WeatherDisplay:10.37,2013-09-19 22:20:00,
2013-09-19 15:25:00,91.0,51.4,29.71,NNW,335,3.0,3.0,26,0.00,CLR,,0.00,WeatherDisplay:10.37,2013-09-19 22:25:00,
2013-09-19 15:30:00,91.0,51.4,29.71,North,8,3.5,3.5,26,0.00,CLR,,0.00,WeatherDisplay:10.37,2013-09-19 22:30:00,
2013-09-19 15:35:00,91.2,51.5,29.70,WSW,238,2.3,2.3,26,0.00,CLR,,0.00,WeatherDisplay:10.37,2013-09-19 22:35:00,
2013-09-19 15:40:00,91.6,52.9,29.70,NW,305,1.2,1.2,27,0.00,CLR,,0.00,WeatherDisplay:10.37,2013-09-19 22:40:00,
2013-09-19 15:45:00,92.1,52.3,29.70,West,266,3.0,3.0,26,0.00,CLR,,0.00,WeatherDisplay:10.37,2013-09-19 22:45:00,
2013-09-19 15:50:00,92.3,51.4,29.70,NNW,328,3.5,3.5,25,0.00,CLR,,0.00,WeatherDisplay:10.37,2013-09-19 22:50:00,
2013-09-19 15:55:00,91.6,51.9,29.70,SSW,207,1.2,1.2,26,0.00,CLR,,0.00,WeatherDisplay:10.37,2013-09-19 22:55:00,
2013-09-19 16:00:00,91.7,50.9,29.70,West,262,2.3,2.3,25,0.00,CLR,,0.00,WeatherDisplay:10.37,2013-09-19 23:00:00,
2013-09-19 16:05:00,92.5,51.6,29.69,North,352,0.0,0.4,25,0.00,CLR,,0.00,WeatherDisplay:10.37,2013-09-19 23:05:00,
2013-09-19 16:10:00,92.7,50.6,29.69,NW,322,3.5,3.5,24,0.00,CLR,,0.00,WeatherDisplay:10.37,2013-09-19 23:10:00,
2013-09-19 16:15:00,91.8,51.0,29.69,North,350,3.5,3.5,25,0.00,CLR,,0.00,WeatherDisplay:10.37,2013-09-19 23:15:00,
2013-09-19 16:20:00,91.2,51.5,29.69,WNW,296,2.3,2.3,26,0.00,CLR,,0.00,WeatherDisplay:10.37,2013-09-19 23:20:00,
2013-09-19 16:25:00,91.1,51.4,29.69,West,259,2.3,2.3,26,0.00,CLR,,0.00,WeatherDisplay:10.37,2013-09-19 23:25:00,
2013-09-19 16:30:00,91.4,51.7,29.68,WNW,288,1.2,1.2,26,0.00,CLR,,0.00,WeatherDisplay:10.37,2013-09-19 23:30:00,
2013-09-19 16:35:00,91.5,51.8,29.68,WNW,302,1.2,1.2,26,0.00,CLR,,0.00,WeatherDisplay:10.37,2013-09-19 23:35:00,
2013-09-19 16:40:00,91.9,52.1,29.68,WSW,249,3.5,3.5,26,0.00,CLR,,0.00,WeatherDisplay:10.37,2013-09-19 23:40:00,
2013-09-19 16:45:00,91.9,53.1,29.68,NNE,22,1.2,1.2,27,0.00,CLR,,0.00,WeatherDisplay:10.37,2013-09-19 23:45:00,
2013-09-19 16:50:00,92.2,51.3,29.68,NNW,336,2.3,2.3,25,0.00,CLR,,0.00,WeatherDisplay:10.37,2013-09-19 23:50:00,
2013-09-19 16:55:00,92.0,52.2,29.67,NNW,347,3.5,3.5,26,0.00,CLR,,0.00,WeatherDisplay:10.37,2013-09-19 23:55:00,
2013-09-19 17:00:00,92.0,51.1,29.67,North,359,2.0,2.0,25,0.00,CLR,,0.00,WeatherDisplay:10.37,2013-09-20 00:00:00,
2013-09-19 17:05:00,91.6,51.9,29.67,WSW,249,3.5,3.5,26,0.00,CLR,,0.00,WeatherDisplay:10.37,2013-09-20 00:05:00,
2013-09-19 17:10:00,91.9,51.1,29.67,NNW,333,3.5,3.5,25,0.00,CLR,,0.00,WeatherDisplay:10.37,2013-09-20 00:10:00,
2013-09-19 17:15:00,91.7,51.9,29.67,NNW,338,1.2,0.0,26,0.00,CLR,,0.00,WeatherDisplay:10.37,2013-09-20 00:15:00,
2013-09-19 17:20:00,91.8,52.0,29.67,WSW,255,3.5,3.5,26,0.00,CLR,,0.00,WeatherDisplay:10.37,2013-09-20 00:20:00,
2013-09-19 17:25:00,91.6,51.9,29.67,NNW,342,1.2,0.0,26,0.00,CLR,,0.00,WeatherDisplay:10.37,2013-09-20 00:25:00,
2013-09-19 17:30:00,91.2,51.5,29.67,NW,325,3.5,3.5,26,0.00,CLR,,0.00,WeatherDisplay:10.37,2013-09-20 00:30:00,
2013-09-19 17:35:00,90.9,53.3,29.67,North,350,2.3,2.3,28,0.00,CLR,,0.00,WeatherDisplay:10.37,2013-09-20 00:35:00,
2013-09-19 17:40:00,91.0,52.4,29.66,NW,323,3.5,3.5,27,0.00,CLR,,0.00,WeatherDisplay:10.37,2013-09-20 00:40:00,
2013-09-19 17:45:00,91.3,52.6,29.66,NNW,336,1.2,1.2,27,0.00,CLR,,0.00,WeatherDisplay:10.37,2013-09-20 00:45:00,
2013-09-19 17:50:00,90.8,52.2,29.67,SW,235,2.3,2.3,27,0.00,CLR,,0.00,WeatherDisplay:10.37,2013-09-20 00:50:00,
2013-09-19 17:55:00,90.3,52.8,29.67,West,273,1.2,1.2,28,0.00,CLR,,0.00,WeatherDisplay:10.37,2013-09-20 00:55:00,
2013-09-19 18:00:00,89.5,53.0,29.67,West,262,0.0,0.0,29,0.00,CLR,,0.00,WeatherDisplay:10.37,2013-09-20 01:00:00,
2013-09-19 18:05:00,89.0,52.6,29.67,West,274,1.2,1.2,29,0.00,CLR,,0.00,WeatherDisplay:10.37,2013-09-20 01:05:00,
2013-09-19 18:10:00,88.4,52.1,29.67,West,260,2.0,2.0,29,0.00,CLR,,0.00,WeatherDisplay:10.37,2013-09-20 01:10:00,
2013-09-19 18:15:00,87.8,53.4,29.67,WNW,288,1.2,0.0,31,0.00,CLR,,0.00,WeatherDisplay:10.37,2013-09-20 01:15:00,
2013-09-19 18:20:00,87.4,53.1,29.67,WNW,290,1.2,1.2,31,0.00,CLR,,0.00,WeatherDisplay:10.37,2013-09-20 01:20:00,
2013-09-19 18:25:00,86.9,52.6,29.67,North,350,0.0,0.0,31,0.00,CLR,,0.00,WeatherDisplay:10.37,2013-09-20 01:25:00,
2013-09-19 18:30:00,86.5,53.1,29.67,NNW,339,0.0,0.0,32,0.00,CLR,,0.00,WeatherDisplay:10.37,2013-09-20 01:30:00,
2013-09-19 18:35:00,86.1,53.6,29.67,West,275,1.2,0.0,33,0.00,CLR,,0.00,WeatherDisplay:10.37,2013-09-20 01:35:00,
2013-09-19 18:40:00,85.8,53.4,29.67,West,276,0.0,0.1,33,0.00,CLR,,0.00,WeatherDisplay:10.37,2013-09-20 01:40:00,
2013-09-19 18:45:00,85.4,53.8,29.67,West,276,0.0,0.0,34,0.00,CLR,,0.00,WeatherDisplay:10.37,2013-09-20 01:45:00,
2013-09-19 18:50:00,84.9,55.0,29.67,West,276,0.0,0.0,36,0.00,CLR,,0.00,WeatherDisplay:10.37,2013-09-20 01:50:00,
2013-09-19 18:55:00,84.4,53.8,29.67,West,276,0.0,0.0,35,0.00,CLR,,0.00,WeatherDisplay:10.37,2013-09-20 01:55:00,
2013-09-19 19:00:00,83.8,54.0,29.67,West,276,0.0,0.0,36,0.00,CLR,,0.00,WeatherDisplay:10.37,2013-09-20 02:00:00,
2013-09-19 19:05:00,83.3,56.5,29.67,West,276,0.0,0.0,40,0.00,CLR,,0.00,WeatherDisplay:10.37,2013-09-20 02:05:00,
2013-09-19 19:10:00,82.6,55.8,29.67,West,275,0.0,0.0,40,0.00,CLR,,0.00,WeatherDisplay:10.37,2013-09-20 02:10:00,
2013-09-19 19:15:00,81.9,55.2,29.67,West,276,0.0,0.0,40,0.00,CLR,,0.00,WeatherDisplay:10.37,2013-09-20 02:15:00,
2013-09-19 19:20:00,81.3,56.7,29.67,West,276,0.0,0.0,43,0.00,CLR,,0.00,WeatherDisplay:10.37,2013-09-20 02:20:00,
2013-09-19 19:25:00,80.7,55.5,29.67,West,276,0.0,0.0,42,0.00,CLR,,0.00,WeatherDisplay:10.37,2013-09-20 02:25:00,
2013-09-19 19:30:00,80.1,54.9,29.67,West,275,0.0,0.0,42,0.00,CLR,,0.00,WeatherDisplay:10.37,2013-09-20 02:30:00,
2013-09-19 19:35:00,79.4,55.6,29.68,West,276,0.0,0.0,44,0.00,CLR,,0.00,WeatherDisplay:10.37,2013-09-20 02:35:00,
2013-09-19 19:41:00,78.8,56.3,29.67,West,276,0.0,0.0,46,0.00,CLR,,0.00,WeatherDisplay:10.37,2013-09-20 02:41:00,
2013-09-19 19:46:00,78.3,55.8,29.68,West,276,0.0,0.0,46,0.00,CLR,,0.00,WeatherDisplay:10.37,2013-09-20 02:46:00,
2013-09-19 19:51:00,77.8,56.5,29.68,West,276,0.0,0.0,48,0.00,CLR,,0.00,WeatherDisplay:10.37,2013-09-20 02:51:00,
2013-09-19 19:56:00,77.4,56.7,29.68,West,276,0.0,0.0,49,0.00,CLR,,0.00,WeatherDisplay:10.37,2013-09-20 02:56:00,
2013-09-19 20:01:00,76.9,56.8,29.68,West,276,0.0,0.0,50,0.00,CLR,,0.00,WeatherDisplay:10.37,2013-09-20 03:01:00,
2013-09-19 20:06:00,76.3,56.3,29.68,West,275,0.0,0.0,50,0.00,CLR,,0.00,WeatherDisplay:10.37,2013-09-20 03:06:00,
2013-09-19 20:11:00,75.8,56.4,29.68,West,275,0.0,0.0,51,0.00,CLR,,0.00,WeatherDisplay:10.37,2013-09-20 03:11:00,
2013-09-19 20:16:00,75.5,56.6,29.69,West,276,0.0,0.0,52,0.00,CLR,,0.00,WeatherDisplay:10.37,2013-09-20 03:16:00,
2013-09-19 20:21:00,75.2,57.4,29.69,West,276,0.0,0.0,54,0.00,CLR,,0.00,WeatherDisplay:10.37,2013-09-20 03:21:00,
2013-09-19 20:26:00,74.8,56.5,29.69,West,276,0.0,0.0,53,0.00,CLR,,0.00,WeatherDisplay:10.37,2013-09-20 03:26:00,
2013-09-19 20:31:00,74.6,56.9,29.69,West,276,0.0,0.0,54,0.00,CLR,,0.00,WeatherDisplay:10.37,2013-09-20 03:31:00,
2013-09-19 20:36:00,74.3,57.1,29.69,West,276,0.0,0.0,55,0.00,CLR,,0.00,WeatherDisplay:10.37,2013-09-20 03:36:00,
2013-09-19 20:41:00,74.2,58.0,29.69,West,276,0.0,0.0,57,0.00,CLR,,0.00,WeatherDisplay:10.37,2013-09-20 03:41:00,
2013-09-19 20:46:00,73.9,56.2,29.70,West,276,0.0,0.0,54,0.00,CLR,,0.00,WeatherDisplay:10.37,2013-09-20 03:46:00,
2013-09-19 20:51:00,73.6,56.4,29.70,West,275,0.0,0.0,55,0.00,CLR,,0.00,WeatherDisplay:10.37,2013-09-20 03:51:00,
2013-09-19 20:56:00,73.4,57.7,29.70,West,275,0.0,0.0,58,0.00,CLR,,0.00,WeatherDisplay:10.37,2013-09-20 03:56:00,
2013-09-19 21:01:00,73.1,56.0,29.70,West,275,0.0,0.0,55,0.00,CLR,,0.00,WeatherDisplay:10.37,2013-09-20 04:01:00,
2013-09-19 21:02:00,73.1,56.5,29.70,West,276,0.0,0.0,56,0.00,CLR,,0.00,WeatherDisplay:10.37,2013-09-20 04:02:00,
2013-09-19 21:03:00,73.0,56.4,29.70,West,276,0.0,0.0,56,0.00,CLR,,0.00,WeatherDisplay:10.37,2013-09-20 04:03:00,
2013-09-19 21:08:00,72.9,57.3,29.70,West,275,0.0,0.0,58,0.00,CLR,,0.00,WeatherDisplay:10.37,2013-09-20 04:08:00,
2013-09-19 21:13:00,72.7,58.0,29.70,West,276,0.0,0.0,60,0.00,CLR,,0.00,WeatherDisplay:10.37,2013-09-20 04:13:00,
2013-09-19 21:18:00,72.5,56.9,29.70,West,275,0.0,0.0,58,0.00,CLR,,0.00,WeatherDisplay:10.37,2013-09-20 04:18:00,
2013-09-19 21:23:00,72.2,57.5,29.70,West,276,0.0,0.0,60,0.00,CLR,,0.00,WeatherDisplay:10.37,2013-09-20 04:23:00,
2013-09-19 21:28:00,72.0,58.3,29.70,West,276,0.0,0.0,62,0.00,CLR,,0.00,WeatherDisplay:10.37,2013-09-20 04:28:00,
2013-09-19 21:33:00,71.8,58.1,29.70,West,276,0.0,0.0,62,0.00,CLR,,0.00,WeatherDisplay:10.37,2013-09-20 04:33:00,
2013-09-19 21:38:00,71.5,56.4,29.71,West,275,0.0,0.0,59,0.00,CLR,,0.00,WeatherDisplay:10.37,2013-09-20 04:38:00,
2013-09-19 21:43:00,71.3,56.7,29.71,West,276,0.0,0.0,60,0.00,CLR,,0.00,WeatherDisplay:10.37,2013-09-20 04:43:00,
2013-09-19 21:48:00,71.2,57.5,29.70,West,275,0.0,0.0,62,0.00,CLR,,0.00,WeatherDisplay:10.37,2013-09-20 04:48:00,
2013-09-19 21:53:00,71.1,56.5,29.71,West,276,0.0,0.0,60,0.00,CLR,,0.00,WeatherDisplay:10.37,2013-09-20 04:53:00,
2013-09-19 21:58:00,71.0,57.3,29.71,West,276,0.0,0.0,62,0.00,CLR,,0.00,WeatherDisplay:10.37,2013-09-20 04:58:00,
2013-09-19 22:03:00,70.9,56.3,29.71,West,276,0.0,0.0,60,0.00,CLR,,0.00,WeatherDisplay:10.37,2013-09-20 05:03:00,
2013-09-19 22:08:00,70.7,55.7,29.71,West,276,0.0,0.0,59,0.00,CLR,,0.00,WeatherDisplay:10.37,2013-09-20 05:08:00,
2013-09-19 22:13:00,70.6,56.0,29.71,West,276,0.0,0.0,60,0.00,CLR,,0.00,WeatherDisplay:10.37,2013-09-20 05:13:00,
2013-09-19 22:18:00,70.5,56.4,29.71,West,276,0.0,0.0,61,0.00,CLR,,0.00,WeatherDisplay:10.37,2013-09-20 05:18:00,
2013-09-19 22:23:00,70.3,56.7,29.71,West,276,0.0,0.0,62,0.00,CLR,,0.00,WeatherDisplay:10.37,2013-09-20 05:23:00,
2013-09-19 22:28:00,70.0,55.9,29.71,West,276,0.0,0.0,61,0.00,CLR,,0.00,WeatherDisplay:10.37,2013-09-20 05:28:00,
2013-09-19 22:33:00,69.9,56.3,29.71,West,275,0.0,0.0,62,0.00,CLR,,0.00,WeatherDisplay:10.37,2013-09-20 05:33:00,
2013-09-19 22:38:00,69.7,56.1,29.71,West,276,0.0,0.0,62,0.00,CLR,,0.00,WeatherDisplay:10.37,2013-09-20 05:38:00,
2013-09-19 22:43:00,69.5,56.3,29.71,West,276,0.0,0.0,63,0.00,CLR,,0.00,WeatherDisplay:10.37,2013-09-20 05:43:00,
2013-09-19 22:48:00,69.3,56.6,29.71,West,276,0.0,0.0,64,0.00,CLR,,0.00,WeatherDisplay:10.37,2013-09-20 05:48:00,
2013-09-19 22:53:00,69.1,55.5,29.71,West,276,0.0,0.0,62,0.00,CLR,,0.00,WeatherDisplay:10.37,2013-09-20 05:53:00,
2013-09-19 22:58:00,69.0,55.0,29.71,West,275,0.0,0.0,61,0.00,CLR,,0.00,WeatherDisplay:10.37,2013-09-20 05:58:00,
2013-09-19 23:03:00,69.0,55.4,29.71,West,275,0.0,0.0,62,0.00,CLR,,0.00,WeatherDisplay:10.37,2013-09-20 06:03:00,
2013-09-19 23:08:00,68.9,56.2,29.72,West,276,0.0,0.0,64,0.00,CLR,,0.00,WeatherDisplay:10.37,2013-09-20 06:08:00,
2013-09-19 23:13:00,68.8,55.2,29.71,West,276,0.0,0.0,62,0.00,CLR,,0.00,WeatherDisplay:10.37,2013-09-20 06:13:00,
2013-09-19 23:18:00,68.6,55.5,29.71,West,276,0.0,0.0,63,0.00,CLR,,0.00,WeatherDisplay:10.37,2013-09-20 06:18:00,
2013-09-19 23:23:00,68.6,56.4,29.71,West,276,0.0,0.0,65,0.00,CLR,,0.00,WeatherDisplay:10.37,2013-09-20 06:23:00,
2013-09-19 23:28:00,68.4,55.3,29.72,West,276,0.0,0.0,63,0.00,CLR,,0.00,WeatherDisplay:10.37,2013-09-20 06:28:00,
2013-09-19 23:33:00,68.4,55.7,29.72,West,276,0.0,0.0,64,0.00,CLR,,0.00,WeatherDisplay:10.37,2013-09-20 06:33:00,
2013-09-19 23:38:00,68.4,55.7,29.72,West,276,0.0,0.0,64,0.00,CLR,,0.00,WeatherDisplay:10.37,2013-09-20 06:38:00,
2013-09-19 23:43:00,68.3,55.6,29.72,West,276,0.0,0.0,64,0.00,CLR,,0.00,WeatherDisplay:10.37,2013-09-20 06:43:00,
2013-09-19 23:48:00,68.1,56.7,29.72,West,276,0.0,0.0,67,0.00,CLR,,0.00,WeatherDisplay:10.37,2013-09-20 06:48:00,
2013-09-19 23:53:00,68.1,57.1,29.72,West,276,0.0,0.0,68,0.00,CLR,,0.00,WeatherDisplay:10.37,2013-09-20 06:53:00,
2013-09-19 23:58:00,67.9,56.5,29.72,West,275,0.0,0.0,67,0.00,CLR,,0.00,WeatherDisplay:10.37,2013-09-20 06:58:00,